FW7858 Weather Reports


Display with metric or nautical units.
time (UTC)temp
F
wind
direction
speed
MPH
gust
MPH
rain 1hr
in
rain 24hr
in
rain mn
in
humidity
%
barometer
mb
20260905073537 66 355 3.0 6.0 0.00 0.00 0.00 95 1011.8
20260905073044 66 350 3.0 6.0 0.00 0.00 0.00 95 1011.7
20260905072536 66 5 3.0 8.0 0.00 0.00 0.00 95 1011.7
20260905072037 66 355 4.0 8.0 0.00 0.00 0.00 95 1011.9
20260905071535 66 360 3.0 8.0 0.00 0.00 0.00 95 1012.0
20260905071036 66 5 3.0 9.0 0.00 0.00 0.00 94 1012.1
20260905070532 66 5 2.0 9.0 0.00 0.00 0.00 94 1012.2
20260905070043 66 355 3.0 10.0 0.00 0.00 0.00 94 1012.1
20260905065532 66 349 5.0 10.0 0.00 0.00 0.00 94 1012.0
20260905065034 66 360 3.0 6.0 0.00 0.00 0.00 94 1012.2
20260905064531 66 350 2.0 6.0 0.00 0.00 0.00 94 1012.2
20260905064030 66 9 2.0 6.0 0.00 0.00 0.00 93 1012.2
20260905063529 66 275 1.0 4.0 0.00 0.00 0.00 93 1012.4
20260905063029 66 243 1.0 4.0 0.00 0.00 0.00 93 1012.4
20260905062531 66 296 1.0 5.0 0.00 0.00 0.00 93 1012.3
20260905062030 66 330 2.0 9.0 0.00 0.00 0.00 93 1012.1
20260905061542 66 355 3.0 9.0 0.00 0.00 0.00 93 1012.1
20260905061027 67 342 3.0 9.0 0.00 0.00 0.00 93 1012.1
20260905060527 67 5 4.0 9.0 0.00 0.00 0.00 93 1012.1
20260905060025 67 5 4.0 9.0 0.00 0.00 0.00 93 1012.1
20260905055524 67 360 3.0 5.0 0.00 0.00 0.00 93 1012.1
20260905055025 67 339 2.0 5.0 0.00 0.00 0.00 92 1012.2
20260905054523 67 267 2.0 5.0 0.00 0.00 0.00 92 1012.3
20260905054022 67 220 2.0 6.0 0.00 0.00 0.00 92 1012.4
20260905053525 68 300 2.0 4.0 0.00 0.00 0.00 92 1012.3
20260905053022 68 294 2.0 6.0 0.00 0.00 0.00 92 1012.4
20260905052519 68 276 2.0 6.0 0.00 0.00 0.00 92 1012.3
20260905052019 68 295 2.0 4.0 0.00 0.00 0.00 92 1012.2
20260905051523 68 292 1.0 4.0 0.00 0.00 0.00 92 1012.3
20260905051017 68 284 2.0 3.0 0.00 0.00 0.00 92 1012.2
20260905050517 68 317 1.0 3.0 0.00 0.00 0.00 92 1012.2
20260905050016 68 333 1.0 3.0 0.00 0.00 0.00 91 1012.2
20260905045514 69 325 1.0 4.0 0.00 0.00 0.00 91 1012.2
20260905045015 69 355 1.0 4.0 0.00 0.00 0.00 91 1012.1
20260905044517 69 355 1.0 3.0 0.00 0.00 0.00 91 1012.0
20260905044015 69 355 2.0 5.0 0.00 0.00 0.00 91 1012.0
20260905043514 69 355 2.0 5.0 0.00 0.00 0.00 90 1011.9
20260905043016 69 315 1.0 4.0 0.00 0.00 0.00 90 1011.9
20260905042516 69 317 1.0 4.0 0.00 0.00 0.00 90 1012.0
20260905042013 69 360 1.0 5.0 0.00 0.00 0.00 90 1011.9
20260905041514 70 360 2.0 6.0 0.00 0.00 0.00 90 1011.8
20260905041013 70 350 2.0 5.0 0.00 0.00 0.00 90 1011.7
20260905040512 70 348 2.0 8.0 0.00 0.00 0.00 90 1011.7
20260905040018 70 338 2.0 8.0 0.00 0.00 0.00 90 1011.7
20260905035514 70 351 3.0 8.0 0.00 0.00 0.00 90 1011.6
20260905035012 70 5 3.0 6.0 0.00 0.00 0.00 90 1011.7
20260905034513 71 355 3.0 8.0 0.00 0.00 0.00 89 1011.7
20260905034011 71 355 3.0 9.0 0.00 0.00 0.00 89 1011.8
20260905033511 71 12 3.0 6.0 0.00 0.00 0.00 89 1011.8
20260905033014 71 355 3.0 6.0 0.00 0.00 0.00 88 1011.9
20260905032513 71 360 2.0 5.0 0.00 0.00 0.00 88 1011.9
20260905032011 71 5 3.0 5.0 0.00 0.00 0.00 88 1011.9
20260905031514 72 5 0.0 3.0 0.00 0.00 0.00 87 1012.0
20260905031011 72 5 1.0 3.0 0.00 0.00 0.00 87 1012.0
20260905030515 72 5 1.0 3.0 0.00 0.00 0.00 87 1012.1
20260905030010 72 5 0.0 3.0 0.00 0.00 0.00 87 1012.0
20260905025514 72 5 0.0 3.0 0.00 0.00 0.00 87 1012.0
20260905025012 72 9 0.0 3.0 0.00 0.00 0.00 86 1011.9
20260905024509 72 9 0.0 5.0 0.00 0.00 0.00 86 1011.9
20260905024011 73 9 3.0 5.0 0.00 0.00 0.00 86 1011.8
20260905023508 73 5 0.0 2.0 0.00 0.00 0.00 87 1011.8
20260905023007 73 5 0.0 4.0 0.00 0.00 0.00 86 1011.7
20260905022505 73 5 2.0 4.0 0.00 0.00 0.00 86 1011.5
20260905022007 73 5 2.0 4.0 0.00 0.00 0.00 86 1011.4
20260905021507 74 5 1.0 4.0 0.00 0.00 0.00 86 1011.3
20260905021003 74 5 1.0 5.0 0.00 0.00 0.00 86 1011.2
20260905020506 74 5 2.0 5.0 0.00 0.00 0.00 85 1011.2
20260905020002 74 5 2.0 4.0 0.00 0.00 0.00 85 1011.3
20260905015502 75 5 0.0 3.0 0.00 0.00 0.00 84 1011.3
20260905015002 75 5 0.0 4.0 0.00 0.00 0.00 84 1011.1
20260905014604 75 5 1.0 4.0 0.00 0.00 0.00 84 1011.0
20260905014100 75 5 1.0 4.0 0.00 0.00 0.00 83 1010.8
20260905013601 76 5 1.0 4.0 0.00 0.00 0.00 83 1010.8
20260905013102 76 9 0.0 5.0 0.00 0.00 0.00 82 1010.8
20260905013001 76 9 0.0 5.0 0.00 0.00 0.00 82 1010.7
20260905012602 76 9 2.0 5.0 0.00 0.00 0.00 82 1010.5
20260905012100 76 9 2.0 5.0 0.00 0.00 0.00 81 1010.3
20260905011558 77 5 2.0 5.0 0.00 0.00 0.00 81 1010.3
20260905011057 77 5 2.0 5.0 0.00 0.00 0.00 80 1010.3
20260905010558 77 5 2.0 5.0 0.00 0.00 0.00 80 1010.3
20260905005557 78 5 1.0 5.0 0.00 0.03 0.00 79 1010.1
20260905005057 78 5 2.0 6.0 0.00 0.03 0.00 78 1010.0
20260905004603 78 360 3.0 6.0 0.00 0.03 0.00 78 1010.1
20260905004056 79 21 2.0 4.0 0.00 0.03 0.00 77 1010.2
20260905003557 79 107 0.0 2.0 0.00 0.03 0.00 76 1010.2
20260905003057 80 107 0.0 3.0 0.00 0.03 0.00 76 1010.1
20260905002555 80 107 1.0 3.0 0.00 0.03 0.00 75 1010.1
20260905002100 80 114 1.0 3.0 0.00 0.03 0.00 74 1010.1
20260905001556 81 113 0.0 3.0 0.00 0.03 0.00 73 1010.0
20260905001055 81 5 1.0 3.0 0.00 0.03 0.00 73 1009.9
20260905000555 81 9 0.0 5.0 0.00 0.03 0.00 72 1009.8
20260905000055 81 9 2.0 5.0 0.00 0.03 0.00 72 1010.0
20260904235555 82 5 2.0 5.0 0.00 0.03 0.00 71 1010.0
20260904235056 82 360 2.0 6.0 0.00 0.03 0.00 71 1010.0
20260904234557 82 355 2.0 8.0 0.00 0.03 0.00 71 1010.0
20260904234059 82 5 1.0 5.0 0.00 0.03 0.00 71 1010.0
20260904233555 82 355 2.0 6.0 0.00 0.03 0.00 71 1010.0
20260904233055 82 360 2.0 6.0 0.00 0.03 0.00 70 1010.0
20260904232554 82 305 1.0 3.0 0.00 0.03 0.00 71 1010.1
20260904232055 82 298 1.0 3.0 0.00 0.03 0.00 71 1010.1
20260904231557 82 288 1.0 3.0 0.00 0.03 0.00 70 1010.1
20260904231053 82 288 1.0 3.0 0.00 0.03 0.00 70 1010.1
20260904230553 83 309 1.0 4.0 0.00 0.03 0.00 69 1010.2
20260904230053 83 308 2.0 4.0 0.00 0.03 0.00 69 1010.1
20260904225553 83 217 1.0 4.0 0.00 0.03 0.00 70 1010.0
20260904225052 83 287 1.0 4.0 0.00 0.03 0.00 70 1010.0
20260904224555 83 284 1.0 8.0 0.00 0.03 0.00 71 1010.0
20260904224057 83 11 3.0 8.0 0.00 0.03 0.00 70 1010.0
20260904223552 83 5 3.0 8.0 0.00 0.03 0.00 70 1009.9
20260904223055 83 360 3.0 8.0 0.00 0.03 0.00 71 1010.0
20260904222553 83 355 4.0 8.0 0.00 0.03 0.00 69 1009.8
20260904222058 83 5 3.0 6.0 0.00 0.03 0.00 68 1009.8
20260904221551 83 355 3.0 6.0 0.00 0.03 0.00 68 1009.8
20260904221053 83 5 3.0 8.0 0.00 0.03 0.00 68 1009.8
20260904220549 83 9 3.0 8.0 0.00 0.03 0.00 68 1009.8
20260904220109 83 360 4.0 9.0 0.00 0.03 0.00 68 1009.8
20260904215552 84 360 3.0 9.0 0.00 0.03 0.00 68 1009.8
20260904215049 84 5 2.0 9.0 0.00 0.03 0.00 67 1009.9
20260904214549 84 5 5.0 8.0 0.00 0.03 0.00 66 1009.8
20260904214054 84 5 1.0 6.0 0.00 0.03 0.00 68 1009.8
20260904213549 84 9 3.0 6.0 0.00 0.03 0.00 66 1009.9
20260904213050 84 5 2.0 5.0 0.00 0.03 0.00 66 1009.9
20260904212548 84 13 2.0 8.0 0.00 0.03 0.00 67 1009.9
20260904212047 84 9 2.0 8.0 0.00 0.03 0.00 67 1009.9
20260904211604 84 5 4.0 8.0 0.00 0.03 0.00 67 1010.0
20260904211048 83 5 2.0 6.0 0.00 0.03 0.00 67 1010.0
20260904210545 83 360 3.0 8.0 0.00 0.03 0.00 66 1010.0
20260904210048 84 5 3.0 8.0 0.00 0.03 0.00 69 1010.1
20260904205546 84 9 2.0 8.0 0.00 0.03 0.00 67 1010.1
20260904205047 84 5 3.0 8.0 0.00 0.03 0.00 68 1010.0
20260904204545 84 5 2.0 8.0 0.00 0.03 0.00 68 1010.0
20260904204045 84 5 2.0 6.0 0.00 0.03 0.00 67 1010.0
20260904203544 84 12 3.0 6.0 0.00 0.03 0.00 68 1010.0
20260904203051 84 360 1.0 6.0 0.00 0.03 0.00 69 1010.1
20260904202543 84 5 1.0 8.0 0.00 0.03 0.00 70 1010.0
20260904202043 83 360 3.0 8.0 0.00 0.03 0.00 68 1010.1
20260904201542 83 16 3.0 8.0 0.00 0.03 0.00 70 1010.2
20260904201047 83 360 1.0 6.0 0.00 0.03 0.00 70 1010.2
20260904200544 83 5 3.0 6.0 0.00 0.03 0.00 71 1010.1
20260904200043 83 5 2.0 6.0 0.00 0.03 0.00 71 1010.0
20260904195540 83 360 2.0 8.0 0.00 0.03 0.00 72 1010.1
20260904195040 82 5 1.0 8.0 0.00 0.03 0.00 73 1010.1
20260904194544 83 355 1.0 9.0 0.00 0.03 0.00 71 1010.1
20260904194039 83 5 3.0 9.0 0.00 0.03 0.00 71 1010.2
20260904193538 83 81 0.0 6.0 0.00 0.03 0.00 72 1010.2
20260904193038 82 62 1.0 9.0 0.00 0.03 0.00 72 1010.1
20260904192537 82 10 3.0 9.0 0.00 0.03 0.00 73 1010.2
20260904192036 82 351 1.0 6.0 0.00 0.03 0.00 75 1010.2
20260904191544 81 355 1.0 6.0 0.00 0.03 0.00 74 1010.2
20260904191035 81 15 3.0 8.0 0.00 0.03 0.00 74 1010.2
20260904190534 81 5 3.0 9.0 0.00 0.03 0.00 74 1010.2
20260904190042 82 360 3.0 9.0 0.00 0.03 0.00 73 1010.3
20260904185534 82 5 1.0 5.0 0.00 0.03 0.00 74 1010.3
20260904185033 82 64 2.0 8.0 0.00 0.03 0.00 72 1010.3
20260904184537 82 5 2.0 6.0 0.00 0.03 0.00 73 1010.4
20260904184031 81 91 1.0 5.0 0.00 0.03 0.00 74 1010.3
20260904183531 81 9 2.0 9.0 0.00 0.03 0.00 75 1010.4
20260904183030 80 9 3.0 9.0 0.00 0.03 0.00 74 1010.3
20260904182528 80 360 2.0 8.0 0.00 0.03 0.00 74 1010.3
20260904182028 80 11 3.0 8.0 0.00 0.03 0.00 76 1010.3
20260904181527 79 355 1.0 8.0 0.00 0.03 0.00 77 1010.2
20260904181025 79 77 2.0 9.0 0.00 0.03 0.00 77 1010.3
20260904180524 79 5 2.0 9.0 0.00 0.03 0.00 77 1010.4
20260904180024 79 9 2.0 9.0 0.00 0.03 0.00 76 1010.4
20260904175525 79 360 4.0 9.0 0.00 0.03 0.00 75 1010.4
20260904175024 79 355 3.0 8.0 0.00 0.03 0.00 76 1010.4
20260904174522 79 5 2.0 9.0 0.00 0.03 0.00 78 1010.4
20260904174020 78 5 3.0 9.0 0.00 0.03 0.00 77 1010.3
20260904173520 78 9 2.0 8.0 0.00 0.03 0.00 80 1010.3
20260904173034 78 360 3.0 8.0 0.00 0.03 0.00 78 1010.4
20260904172519 78 9 4.0 8.0 0.00 0.03 0.00 78 1010.4
20260904172018 78 360 2.0 5.0 0.00 0.03 0.00 80 1010.4
20260904171517 78 340 2.0 6.0 0.00 0.03 0.00 81 1010.5
20260904171016 78 5 3.0 6.0 0.00 0.03 0.00 80 1010.6
20260904170514 77 355 1.0 5.0 0.00 0.03 0.00 82 1010.5
20260904170015 77 355 1.0 6.0 0.00 0.03 0.00 82 1010.5
20260904165512 76 355 2.0 6.0 0.00 0.03 0.00 82 1010.5
20260904165012 76 5 2.0 5.0 0.00 0.03 0.00 84 1010.5
20260904164514 76 9 2.0 5.0 0.00 0.03 0.00 85 1010.5
20260904164008 75 5 2.0 5.0 0.00 0.03 0.00 86 1010.4
20260904163508 75 53 1.0 4.0 0.00 0.03 0.00 88 1010.4
20260904163026 74 5 0.0 5.0 0.00 0.03 0.00 90 1010.3
20260904162505 73 355 3.0 6.0 0.00 0.03 0.00 89 1010.4
20260904162003 73 5 3.0 8.0 0.00 0.03 0.00 90 1010.3
20260904161502 72 5 3.0 8.0 0.00 0.03 0.00 92 1010.3
20260904161102 72 12 2.0 6.0 0.00 0.03 0.00 93 1010.2
20260904161002 71 12 3.0 7.0 0.00 0.03 0.00 93 1010.2
20260904160559 71 9 3.0 8.0 0.00 0.03 0.00 94 1010.2
20260904160057 70 355 4.0 8.0 0.00 0.03 0.00 95 1010.2
20260904155556 70 5 3.0 9.0 0.00 0.03 0.00 96 1010.2
20260904155055 70 5 4.0 9.0 0.00 0.03 0.00 97 1010.2
20260904154556 69 360 3.0 9.0 0.00 0.03 0.00 98 1010.2
20260904154056 68 5 3.0 10.0 0.00 0.03 0.00 98 1010.2
20260904153555 68 5 5.0 10.0 0.00 0.03 0.00 98 1010.1
20260904153100 67 9 3.0 6.0 0.00 0.03 0.00 98 1010.1
20260904152555 67 10 3.0 6.0 0.00 0.03 0.00 98 1010.2
20260904152054 67 11 3.0 6.0 0.00 0.03 0.00 98 1010.3
20260904151557 67 5 3.0 6.0 0.00 0.03 0.00 98 1010.3
20260904151056 67 5 2.0 3.0 0.00 0.03 0.00 98 1010.3
20260904150553 66 5 1.0 5.0 0.00 0.03 0.00 98 1010.3
20260904150059 66 5 2.0 5.0 0.00 0.03 0.00 98 1010.2
20260904145553 66 5 2.0 5.0 0.00 0.03 0.00 98 1010.2
20260904145053 66 360 2.0 4.0 0.00 0.03 0.00 98 1010.1
20260904144604 65 360 0.0 4.0 0.00 0.03 0.00 98 1010.1
20260904144055 65 360 2.0 6.0 0.00 0.03 0.00 98 1010.0
20260904143555 65 360 2.0 6.0 0.00 0.03 0.00 98 1010.1
20260904143055 65 297 2.0 3.0 0.00 0.03 0.00 98 1010.1
20260904142553 65 276 0.0 3.0 0.00 0.03 0.00 98 1010.2
20260904142053 64 275 0.0 2.0 0.00 0.03 0.00 98 1010.1
20260904141551 64 275 1.0 2.0 0.00 0.03 0.00 98 1010.0
20260904141051 64 244 0.0 3.0 0.00 0.03 0.00 98 1010.1
20260904140551 64 243 0.0 0.0 0.00 0.03 0.00 98 1010.2
20260904140057 64 244 0.0 0.0 0.00 0.03 0.00 98 1010.2
20260904135551 64 244 0.0 0.0 0.00 0.03 0.00 98 1010.2
20260904135050 64 244 0.0 0.0 0.00 0.03 0.00 98 1010.2
20260904134650 64 244 0.0 1.0 0.00 0.03 0.00 98 1010.1
20260904134049 64 244 0.0 2.0 0.00 0.03 0.00 98 1010.0
20260904133551 64 243 0.0 4.0 0.00 0.03 0.00 97 1010.0
20260904133048 64 244 2.0 4.0 0.00 0.03 0.00 98 1010.0
20260904132548 64 11 0.0 4.0 0.00 0.03 0.00 97 1009.6
20260904132146 64 11 1.0 4.0 0.00 0.03 0.00 97 1009.4
20260904131616 64 11 1.0 3.0 0.00 0.03 0.00 97 1009.3
20260904131043 64 12 1.0 6.0 0.00 0.03 0.00 97 1009.3
20260904130644 64 12 2.0 6.0 0.00 0.03 0.00 97 1009.1
20260904130044 64 12 0.0 5.0 0.00 0.03 0.00 97 1009.0
20260904125527 64 11 2.0 5.0 0.00 0.03 0.00 97 1009.0
20260904125025 64 11 2.0 4.0 0.00 0.03 0.00 97 1009.0
20260904124527 64 11 2.0 4.0 0.00 0.03 0.00 97 1008.9
20260904124024 64 9 2.0 4.0 0.00 0.03 0.00 97 1009.0
20260904123523 64 5 2.0 4.0 0.00 0.03 0.00 97 1008.9
20260904123052 64 5 1.0 4.0 0.00 0.03 0.00 97 1009.0
20260904122522 64 5 2.0 4.0 0.00 0.03 0.00 97 1009.0
20260904122023 64 5 2.0 4.0 0.00 0.03 0.00 97 1008.9
20260904121521 64 5 1.0 3.0 0.00 0.03 0.00 97 1008.8
20260904121021 64 5 0.0 2.0 0.00 0.03 0.00 97 1008.8
20260904120551 64 5 0.0 0.0 0.00 0.03 0.00 97 1008.8
20260904120018 64 5 0.0 0.0 0.00 0.03 0.00 97 1008.7
20260904115517 64 5 0.0 0.0 0.00 0.03 0.00 97 1008.5
20260904115017 64 5 0.0 0.0 0.00 0.03 0.00 97 1008.5
20260904114523 64 5 0.0 5.0 0.00 0.03 0.00 97 1008.3
20260904114013 64 5 2.0 5.0 0.00 0.03 0.00 97 1008.2
20260904113514 64 19 2.0 5.0 0.00 0.03 0.00 97 1008.1
20260904113113 64 5 2.0 3.0 0.00 0.03 0.00 97 1008.1
20260904112512 64 5 2.0 4.0 0.00 0.03 0.00 96 1008.1
20260904112014 64 5 2.0 4.0 0.00 0.03 0.00 96 1008.1
20260904111511 64 5 1.0 6.0 0.00 0.03 0.00 96 1008.1
20260904111011 64 5 2.0 4.0 0.00 0.03 0.00 96 1008.1
20260904110511 64 9 2.0 6.0 0.00 0.03 0.00 96 1008.0
20260904110011 64 9 2.0 6.0 0.00 0.03 0.00 96 1007.9
20260904105611 64 5 3.0 5.0 0.00 0.03 0.00 96 1007.8
20260904105010 64 5 2.0 5.0 0.00 0.03 0.00 96 1007.9
20260904104511 64 5 2.0 5.0 0.00 0.03 0.00 96 1008.0
20260904104008 64 5 2.0 5.0 0.00 0.03 0.00 96 1008.0
20260904103507 64 5 2.0 5.0 0.00 0.03 0.00 96 1007.9
20260904103031 64 9 2.0 8.0 0.00 0.03 0.00 95 1007.8
20260904102507 64 5 2.0 8.0 0.00 0.03 0.00 95 1007.8
20260904102009 64 348 2.0 9.0 0.00 0.03 0.00 95 1007.6
20260904101505 64 333 3.0 9.0 0.00 0.03 0.00 95 1007.6
20260904101036 64 360 3.0 9.0 0.00 0.03 0.00 95 1007.4
20260904100503 64 10 3.0 9.0 0.00 0.03 0.00 95 1007.5
20260904100028 64 5 2.0 6.0 0.00 0.03 0.00 95 1007.4
20260904095502 64 5 3.0 5.0 0.00 0.03 0.00 94 1007.4
20260904095002 64 5 2.0 5.0 0.00 0.03 0.00 94 1007.4
20260904094601 64 5 2.0 6.0 0.00 0.03 0.00 94 1007.3
20260904094059 64 10 3.0 6.0 0.00 0.03 0.00 94 1007.3
20260904093600 64 355 3.0 8.0 0.00 0.03 0.00 94 1007.1
20260904093059 64 360 3.0 6.0 0.00 0.03 0.00 93 1007.2
20260904092556 64 360 3.0 9.0 0.00 0.03 0.00 93 1007.0
20260904092508 64 360 3.0 9.0 0.00 0.03 0.00 93 1006.9
20260904092055 64 5 4.0 9.0 0.00 0.03 0.00 93 1006.9
20260904091555 64 360 3.0 8.0 0.00 0.03 0.00 93 1007.0
20260904091057 65 360 3.0 8.0 0.00 0.03 0.00 93 1006.9
20260904090553 65 11 4.0 8.0 0.00 0.03 0.00 93 1006.9
20260904090513 65 360 4.0 8.0 0.00 0.03 0.00 93 1006.9
20260904090053 65 355 3.0 8.0 0.00 0.03 0.00 92 1006.8
20260904085552 65 9 2.0 9.0 0.00 0.03 0.00 92 1006.8
20260904085051 65 11 4.0 9.0 0.00 0.03 0.00 92 1006.7
20260904084551 65 355 3.0 8.0 0.00 0.03 0.00 92 1006.7
20260904084049 65 5 4.0 8.0 0.00 0.03 0.00 92 1006.7
20260904083552 65 5 3.0 8.0 0.00 0.03 0.00 92 1006.7
20260904083049 65 5 3.0 6.0 0.00 0.03 0.00 92 1006.7
20260904082549 65 9 3.0 6.0 0.00 0.03 0.00 92 1006.7
20260904082048 65 9 3.0 7.0 0.00 0.03 0.00 92 1006.7
20260904081547 65 15 3.0 6.0 0.00 0.03 0.00 92 1006.7
20260904081050 66 12 3.0 7.0 0.00 0.03 0.00 92 1006.7
20260904080545 66 9 3.0 6.0 0.00 0.03 0.00 92 1006.6
20260904080054 66 11 3.0 8.0 0.00 0.03 0.00 92 1006.5
20260904075544 66 360 3.0 8.0 0.00 0.03 0.00 92 1006.4
20260904075046 66 5 3.0 8.0 0.00 0.03 0.00 92 1006.3
20260904074546 66 9 4.0 8.0 0.00 0.03 0.00 92 1006.3
20260904074041 66 9 3.0 8.0 0.00 0.03 0.00 92 1006.3